This demonstration page uses our WeatherBlox Daily Observations layout. Learn more.

Left ArrowRight Arrow

36.19886, -115.1175

Hourly Observations for March 1, 2017

Temp ( °F °C ) Dew Point ( °F °C ) Humidity (%) Winds ( mph kmh ) Pressure ( in mb ) Visibility ( mi km ) Precip ( " mm )
12:53 am 00:53 Clear 46 7.8 14 -10 27 27 NNW 6 9 30.33 1027 10 16 N/A
1:53 am 01:53 Clear 44 6.7 15 -9.4 31 31 WNW 7 11 30.34 1027 10 16 N/A
2:53 am 02:53 Clear 43 6.1 16 -8.9 34 34 NNE 3 6 30.34 1027 10 16 N/A
3:53 am 03:53 Clear 43 6.1 16 -8.9 34 34 NE 7 11 30.35 1028 10 16 N/A
4:53 am 04:53 Clear 43 6.1 17 -8.3 35 35 N 9 15 30.38 1029 10 16 N/A
5:53 am 05:53 Clear 42 5.6 17 -8.3 36 36 N N/A 30.40 1030 10 16 N/A
6:53 am 06:53 Sunny 42 5.6 18 -7.8 38 38 NNW 5 7 30.44 1031 10 16 N/A
7:53 am 07:53 Sunny 47 8.3 16 -8.9 29 29 N 12 19 30.45 1031 10 16 N/A
8:53 am 08:53 Sunny 51 10.6 14 -10 23 23 NNW 13 20 30.46 1031 10 16 N/A
9:53 am 09:53 Sunny 54 12.2 13 -10.6 19 19 N 12 19 30.47 1032 10 16 N/A
10:53 am 10:53 Sunny 55 12.8 14 -10 20 20 ENE 6 9 30.46 1032 10 16 N/A
11:53 am 11:53 Sunny 58 14.4 14 -10 18 18 E 3 6 30.43 1031 10 16 N/A
12:53 pm 12:53 Sunny 58 14.4 14 -10 18 18 S 6 9 30.41 1030 10 16 N/A
1:53 pm 13:53 Sunny 59 15 13 -10.6 16 16 VRB 3 6 30.38 1029 10 16 N/A
2:53 pm 14:53 Sunny 61 16.1 13 -10.6 15 15 undefined N/A 30.37 1029 10 16 N/A
3:53 pm 15:53 Sunny 61 16 5 -15 11 11 NNW 16 26 30.00 1016 10 16 N/A
4:53 pm 16:53 Sunny 60 15.6 12 -11.1 15 15 E 8 13 30.36 1028 10 16 N/A
5:53 pm 17:53 Clear 57 13.9 11 -11.7 16 16 E 6 9 30.38 1029 10 16 N/A
6:53 pm 18:53 Clear 56 13.3 12 -11.1 17 17 N N/A 30.39 1029 10 16 N/A
7:53 pm 19:53 Clear 52 11.1 16 -8.9 24 24 NNW 6 9 30.39 1029 10 16 N/A
8:53 pm 20:53 Clear 50 10 18 -7.8 28 28 NW 7 11 30.40 1030 10 16 N/A
9:53 pm 21:53 Clear 53 11.7 14 -10 21 21 N 8 13 30.40 1030 10 16 N/A
10:53 pm 22:53 Clear 51 10.6 15 -9.4 24 24 N 7 11 30.41 1030 10 16 N/A
11:53 pm 23:53 Clear 49 9.4 16 -8.9 27 27 NE 5 7 30.41 1030 10 16 N/A

Powered by AerisWeather